Weather History for KDFI - January, 2014

Change the Weather History Date:

Monday, January 13, 2014

  Actual Average Record
Temperature  
Mean Temperature 42 °F -  
Max Temperature 45 °F 29 °F 61 °F (2005)
Min Temperature 37 °F 13 °F -13 °F (1977)
Degree Days  
Heating Degree Days 23    
Moisture  
Dew Point 34 °F    
Average Humidity 74    
Maximum Humidity 86    
Minimum Humidity 65    
Precipitation  
Precipitation 0.00 in - - ()
Sea Level Pressure  
Sea Level Pressure 29.68 in    
Wind  
Wind Speed 10 mph (SSW)    
Max Wind Speed 14 mph    
Max Gust Speed 20 mph    
Visibility 10 miles    
Events      
Averages and records for this station are not official NWS values.
T = Trace of Precipitation, MM = Missing Value Source: NWS Daily Summary

Daily Weather History Graph

Daily Weather History Graph

Search for Another Location

Airport or City:

Trip Planner

Search our weather history database for the weather conditions in past years. The results will help you decide how hot, cold, wet, or windy it might be!

Date:

Astronomy

Jan. 13, 2014 Rise Set
Actual Time 8:02 AM EST 5:31 PM EST
Civil Twilight 7:31 AM EST 6:01 PM EST
Nautical Twilight 6:57 AM EST 6:35 PM EST
Astronomical Twilight 6:24 AM EST 7:09 PM EST
Moon 3:45 PM EST (1/13) 5:50 AM EST (1/13)
Length of Visible Light 10h 30m
Length of Day
9h 28m
Waxing Gibbous, 95% of the Moon is Illuminated
Jan 13
Waxing Gibbous
Jan 15
Full
Jan 24
Last Quarter
Jan 30
New
Feb 6
First Quarter

Hourly Weather History & Observations

Time (EST) Temp. Windchill Dew Point Humidity Pressure Visibility Wind Dir Wind Speed Gust Speed Precip Events Conditions
12:53 AM 39.0 °F 31.8 °F 30.0 °F 70% 29.78 in 10.0 mi South 11.5 mph - N/A   Clear
1:53 AM 39.0 °F 31.8 °F 30.0 °F 70% 29.77 in 10.0 mi SSW 11.5 mph 19.6 mph N/A   Clear
2:53 AM 39.9 °F 32.5 °F 30.0 °F 68% 29.76 in 10.0 mi SSW 12.7 mph - N/A   Clear
3:53 AM 39.0 °F 31.8 °F 30.0 °F 70% 29.74 in 10.0 mi SSW 11.5 mph - N/A   Clear
4:53 AM 39.9 °F 33.4 °F 30.0 °F 68% 29.73 in 10.0 mi SSW 10.4 mph - N/A   Clear
5:53 AM 39.0 °F 33.4 °F 30.0 °F 70% 29.72 in 10.0 mi SSW 8.1 mph - N/A   Clear
6:53 AM 39.9 °F 33.9 °F 30.0 °F 68% 29.71 in 10.0 mi SSW 9.2 mph - N/A   Clear
7:53 AM 39.9 °F 33.9 °F 30.0 °F 68% 29.70 in 10.0 mi SSW 9.2 mph - N/A   Clear
8:53 AM 41.0 °F 35.8 °F 30.9 °F 67% 29.66 in 10.0 mi SSW 8.1 mph - N/A   Clear
9:53 AM 43.0 °F 37.2 °F 32.0 °F 65% 29.67 in 10.0 mi SSW 10.4 mph - N/A   Clear
10:53 AM 43.0 °F 36.4 °F 32.0 °F 65% 29.68 in 10.0 mi SSW 12.7 mph - N/A   Clear
11:53 AM 43.0 °F 36.0 °F 33.1 °F 68% 29.66 in 10.0 mi SSW 13.8 mph - N/A   Clear
12:53 PM 44.1 °F 37.7 °F 34.0 °F 68% 29.63 in 10.0 mi SSW 12.7 mph - N/A   Overcast
1:53 PM 45.0 °F 39.7 °F 37.0 °F 74% 29.62 in 10.0 mi SSW 10.4 mph - N/A   Overcast
2:53 PM 45.0 °F 39.3 °F 37.9 °F 76% 29.61 in 10.0 mi SSW 11.5 mph - N/A   Overcast
3:53 PM 45.0 °F 40.1 °F 39.0 °F 80% 29.63 in 10.0 mi SSW 9.2 mph - N/A   Overcast
4:53 PM 45.0 °F 38.5 °F 39.0 °F 80% 29.63 in 10.0 mi SSW 13.8 mph - N/A   Mostly Cloudy
5:20 PM 44.6 °F 38.8 °F 39.2 °F 81% 29.63 in 10.0 mi SSW 11.5 mph - N/A   Overcast
5:51 PM 44.6 °F 38.8 °F 37.4 °F 76% 29.63 in 10.0 mi SW 11.5 mph - N/A   Mostly Cloudy
5:53 PM 44.1 °F 38.6 °F 37.9 °F 79% 29.65 in 10.0 mi SW 10.4 mph - N/A   Mostly Cloudy
6:53 PM 43.0 °F 38.2 °F 37.9 °F 82% 29.66 in 10.0 mi SW 8.1 mph - N/A   Overcast
7:53 PM 42.1 °F 38.4 °F 37.0 °F 82% 29.68 in 10.0 mi SW 5.8 mph - N/A   Mostly Cloudy
8:53 PM 41.0 °F 37.1 °F 37.0 °F 86% 29.70 in 10.0 mi SW 5.8 mph - N/A   Clear
9:53 PM 39.0 °F 35.7 °F 35.1 °F 86% 29.70 in 10.0 mi WSW 4.6 mph - N/A   Clear
10:53 PM 39.0 °F 34.8 °F 34.0 °F 82% 29.72 in 10.0 mi WSW 5.8 mph - N/A   Clear
11:53 PM 37.0 °F 33.3 °F 32.0 °F 82% 29.73 in 10.0 mi WSW 4.6 mph - N/A   Clear